Regional Weather Roundup
Issued by NWS Green Bay, WI

Home | Current Version | Previous Version | Graphics & Text | Print | Product List | Glossary Off
Versions: 1 2 3 4 5 6 7 8 9 10 11 12 13 14 15 16 17 18 19 20 21 22 23 24 25 26 27 28 29 30 31 32 33 34 35 36 37 38 39 40 41 42 43 44 45 46 47 48 49 50

000
ASUS43 KGRB 222200
RWRGRB

NORTH-CENTRAL AND NORTHEAST WISCONSIN REGIONAL WEATHER ROUNDUP
NATIONAL WEATHER SERVICE GREEN BAY WI
500 PM CDT FRI JUL 22 2016

WIZ005-009-010>012-018-019-222300-
NORTH CENTRAL WISCONSIN

CITY           SKY/WX    TMP DP  RH WIND       PRES   REMARKS
IRONWOOD       SUNNY     86  64  48 NW9       29.96S
MANITOWISH WTR NOT AVBL
ARBOR VITAE    NOT AVBL
EAGLE RIVER    NOT AVBL
LAND O LAKES   NOT AVBL
RHINELANDER    SUNNY     90  62  39 NW7       30.01F HX  90
PHILLIPS       SUNNY     87  64  44 W6        30.01S
ANTIGO         NOT AVBL
TOMAHAWK       SUNNY     87  61  40 NW5       30.01S
MERRILL        SUNNY     90  65  43 NW7       30.00S HX  91
$$

WIZ013-073-222300-
NORTHEAST WISCONSIN

CITY           SKY/WX    TMP DP  RH WIND       PRES   REMARKS
IRON MOUNTAIN  SUNNY     92  51  24 NW10      29.94F
MARINETTE      SUNNY     88  70  55 SW12        N/A  HX  93
$$

WIZ017-030-035>037-045-222300-
CENTRAL WISCONSIN

CITY           SKY/WX    TMP DP  RH WIND       PRES   REMARKS
MEDFORD        NOT AVBL
WAUSAU         SUNNY     90  62  39 W8        29.97F HX  90
MOSINEE        SUNNY     90  59  35 NW7       30.01S
MARSHFIELD     SUNNY     90  63  40 NW6       30.00S HX  91
WISC RAPIDS    SUNNY     92  58  31 NW6       29.99F HX  91
STEVENS POINT  NOT AVBL
WAUPACA        NOT AVBL
SHAWANO        NOT AVBL
CLINTONVILLE   SUNNY     91  55  29 W7        29.95F
WAUTOMA        SUNNY     91  68  46 NW5       29.97F HX  95
$$

WIZ038-039-048-051-222300-
FOX VALLEY

CITY           SKY/WX    TMP DP  RH WIND       PRES   REMARKS
NWS GREEN BAY  SUNNY     90  68  48 W3        29.95F HX  94
APPLETON       SUNNY     90  63  40 W8        29.97S HX  90
OSHKOSH        SUNNY     90  71  53 W6        29.96F HX  96
FOND DU LAC    SUNNY     90  70  51 W7        29.97F HX  95
$$

WIZ022-050-052-222300-
EAST CENTRAL WISCONSIN

CITY           SKY/WX    TMP DP  RH WIND       PRES   REMARKS
EPHRAIM        FAIR      87  67  51 SW7       29.93F
WASHINGTON ISL NOT AVBL
STURGEON BAY   SUNNY     89  68  49 SW10      29.95F HX  93
MANITOWOC      NOT AVBL
SHEBOYGAN      SUNNY     89  66  46 NW5       29.96F HX  91
$$

LMZ563-521-522-541>543-222300-
LAKESHORE

STATION/POSITION TIME  TEMP    WIND        PRES    VSBY  WAVE
                       AIR SEA DIR/SP/G                  HT/PER
                 (UTC) (F)     (DEG/KT/KT) (MB)    (MI)  (FT/S)
SHEBOYGAN LKSHOR 2100   76     160/ 13/ 14 1014.9F
KEWAUNEE LKSHORE 2100   69     180/ 12/ 13 1014.3F
NORTHPORT PIER   2100   81     150/  6/  8 1012.9F
N MID LAKE BUOY  2050   72 69  200/ 12/ 14 1012.8F         1/ 5
S GREEN BAY BUOY 2100   80 76  180/  8/ 10   N/A
CHAMBERS ISLAND  2100   84     180/  5/ 13 1013.2F
MENOMINEE LKSHOR 2100   85     180/ 10/ 12 1012.6F
$$




USA.gov is the U.S. government's official web portal to all federal, state and local government web resources and services.